Location: Im Fang
(46.6019°N, 7.2397°E)
Time: 09:54:15
(UTC+00:00)

STARLINK 1045 - Pass Details

Date: 08 December 2019
Orbit: 548 x 551 km, 53.0° (Epoch: 17 January)

Event Time Altitude Azimuth Distance (km) Brightness Sun altitude
Exits shadow 05:44:00 20° 293° (WNW) 1,332 4.9 -12.8°
Maximum altitude 05:46:49 66° 215° (SW) 619 3.8 -12.3°
Drops below altitude 10° 05:51:00 10° 133° (SE) 1,852 7.5 -11.7°
Sets 05:53:15 0° 131° (SE) 2,745 8.7 -11.3°
